Погода в Чурках

Россия / Еврейская автономная область     48°04′39″N   132°39′54″E
темп.,
°C
ветер,
м/с
пор.,
м/с
влажн.,
%
обл.,
%
осадки,
мм/ч
давл.,
гПа
погр.,
м
15 мая, сб
сб1501:00+15юв41444100 0.0 1004393
04:00+13ю61386100 2.3 1002587
07:00+12ю71593100 9.2 999824
10:00+13ююз51394100 14.0 998575
13:00+14зюз71289100 4.2 999911
16:00+18зюз8145056 4.3 9992609
19:00+16зюз5125049 0.0 1000634
22:00+12з37610 0.0 1002119
16 мая, вс
вс1601:00+10юз514690 0.0 1003347
04:00+9юз413732 0.0 1003362
07:00+10зюз4137088 0.0 1003443
10:00+15з6105069 0.0 1002974
13:00+20з711315 0.0 10022603
16:00+21зсз6102726 0.0 10003209
19:00+20сз23425 0.0 100085
22:00+14ссв11490 0.0 100211
17 мая, пн
пн1701:00+12ююз11500 0.0 100210
04:00+10ююз22590 0.0 100211
07:00+12ю24660 0.0 1001111
10:00+18юз57450 0.0 1001598
13:00+22з46360 0.0 10001299
16:00+25з59285 0.0 9993050
19:00+23ююз374365 0.0 999227
22:00+17зюз22582 0.0 100019
18 мая, вт
вт1801:00+14ююз116714 0.0 100012
04:00+13ююз227581 0.0 100119
07:00+14ю312702 0.0 1001333
10:00+22ююз6134095 0.0 999683
13:00+27ююз8143039 0.0 9971878
16:00+29юз9142899 0.0 9952538
19:00+25юз7143729 0.0 995784
22:00+18сз36595 0.0 998124
19 мая, ср
ср1901:00+15ссз226854 0.0 100116
04:00+13ссв22685 0.0 100315
07:00+14ссв1269100 0.0 100557
10:00+19ю125172 0.0 1006810
13:00+21юз3440100 0.0 10071948
16:00+22з3437100 0.0 10061790
19:00+21юв124496 0.0 1006156
22:00+15ю225755 0.0 100811